Home   Weather   Monterrey   Past weeks

Flag for Mexico Past Weather in Monterrey, Nuevo León, Mexico — Yesterday and Last 2 Weeks

Now
88 °F

Scattered clouds.


Feels Like: 84 °F
Forecast: 75 / 99 °F
Wind: 20 mph from West

Location: Aerop. Internacional Monterrey - N. L.

Current Time: Apr 26, 2017 at 9:00:04 am

Latest Report: Apr 26, 2017 at 8:40 am


Visibility: 12 mi

Pressure: 29.64 "Hg (27.88 "Hg at 545m altitude)

Humidity: 10%

Dew Point: 25 °F

Location of MonterreyLocation

Past Weather in Monterrey — Graph

°F

Monterrey Temperature Yesterday

Maximum temperature yesterday: 104 °F (at 2:40 pm)
Minimum temperature yesterday: 61 °F (at 6:40 am)
Average temperature yesterday: 90 °F

High & Low Weather Summary for the Past Weeks

 TemperatureHumidityPressure
High104 °F (Apr 25, 2:40 pm)100% (Apr 13, 6:40 am)30.29 "Hg (Apr 13, 6:40 am)
Low57 °F (Apr 23, 6:00 am)6% (Apr 25, 2:40 pm)29.51 "Hg (Apr 25, 6:40 pm)
Average75 °F60%29.98 "Hg
* Reported Apr 11 6:40 am — Apr 26 6:45 am, Monterrey, Weather by CustomWeather, © 2017

Note: Actual official high and low records may vary slightly from our data, if they occured in-between our weather recording intervals... More about our weather records

Advertising

Monterrey Weather History for the Previous 24 Hours

Scroll right to see more
 ConditionsComfort  
Time TempWeatherWind HumidityBarometerVisibility
6:45 am
Wed, Apr 26
79 °FClear.6 mph12%29.58 "Hg10 mi
11:40 pm
Tue, Apr 25
81 °FClear.7 mph34%29.58 "Hg10 mi
10:40 pm84 °FClear.3 mph23%29.57 "Hg10 mi
9:40 pm88 °FClear.6 mph19%29.55 "Hg12 mi
8:40 pm90 °FClear.6 mph17%29.54 "Hg15 mi
7:40 pm97 °FPassing clouds.12 mph13%29.51 "Hg15 mi
6:40 pm100 °FPassing clouds.13 mph9%29.51 "Hg15 mi
5:42 pm102 °FSunny.9 mph7%29.52 "Hg15 mi
4:40 pm102 °FSunny.8 mph7%29.53 "Hg15 mi
3:40 pm102 °FSunny.18 mph6%29.56 "Hg15 mi
2:40 pm104 °FSunny.12 mph6%29.59 "Hg15 mi
1:40 pm100 °FSunny.16 mph7%29.62 "Hg15 mi
12:41 pm99 °FSunny.16 mph9%29.65 "Hg15 mi
11:40 am95 °FSunny.21 mph11%29.68 "Hg15 mi
10:40 am91 °FSunny.14 mph13%29.70 "Hg15 mi
9:40 am86 °FSunny.14 mph19%29.70 "Hg15 mi
Weather by CustomWeather, © 2017

See weather overviewHow to use our weather pages